Terminal Aerodrome Forecast
Issued by NWS Quad Cities IA IL

Home | Current Version | Previous Version | Text Only | Print | Product List | Glossary On
Versions: 1 2 3 4 5 6 7 8 9 10 11 12 13 14 15 16 17 18 19 20 21 22 23 24 25 26 27 28 29 30 31 32 33 34 35 36 37 38 39 40 41 42
000
FTUS43 KDVN 280642 AAB
TAFDBQ
TAF AMD
KDBQ 280642Z 2807/2906 VRB03KT 3SM BR BKN035
      TEMPO 2807/2811 1/2SM FG VV002
     FM281500 14007KT P6SM SCT025=

USA.gov is the U.S. government's official web portal to all federal, state and local government web resources and services.